Weather in Novogusel'skiy

Russia / Saratov Oblast     51°36′06″N   46°09′34″E
temp.,
°C
wind,
m/s
gust,
m/s
humid.,
%
clouds,
%
prec.,
mm/h
press.,
hPa
HPBL,
m
28 february, sun
sun2801:00−12nnw6128547 0.0 1007458
04:00−13nw5118529 0.0 1010400
07:00−15nw488736 0.0 1012185
10:00−14nw5108518 0.0 1013459
13:00−11nw58830 0.0 1014546
16:00−10nw488425 0.0 1014599
19:00−13nw348828 0.0 101632
22:00−14nw348914 0.0 101840
1 march, mon
mon101:00−15nnw339058 0.0 101932
04:00−16nnw348979 0.0 102151
07:00−18nnw338931 0.0 102324
10:00−15nnw358716 0.0 1025180
13:00−12nnw24840 0.0 1025292
16:00−9wnw23860 0.0 1026304
19:00−13w33900 0.0 102522
22:00−14wsw33890 0.0 102625
2 march, tue
tue201:00−13sw349135 0.0 102458
04:00−10sw589262 0.0 1021183
07:00−6sw61390100 0.0 1018410
10:00−3wsw81489100 0.4 1015647
13:000wsw71288100 0.3 1012787
16:00+1wsw81491100 0.5 1009723
19:00+1w61198100 0.3 1007430
22:000wnw4990100 0.4 1007215
3 march, wed
wed301:00−3wnw459295 0.0 100685
04:00−6nw459164 0.0 100770
07:00−7nw48910 0.0 1008134
10:00−6nw49921 0.0 1009309
13:00−1nw698590 0.0 1010849
16:00−1nw7108095 0.1 10111034
19:00−4nw6138283 0.0 1012319
22:00−5nw6138442 0.0 1015273
4 march, thu
thu401:00−7wnw59870 0.0 1016152
04:00−9wnw45897 0.0 101783
07:00−10wnw349126 0.0 101851
10:00−7wsw478913 0.0 1018237
13:00−2wsw712810 0.0 1017595
16:000wsw8147915 0.0 1015727
19:00−2sw7168186 0.0 1013519
22:00−2sw6147893 0.0 1013376